Weather History for Ord, NE

Change the Weather History Date:

Wednesday, February 6, 2013

  Actual Average Record
Temperature  
Mean Temperature 43 °F 26 °F  
Max Temperature 58 °F 39 °F 64 °F (2009)
Min Temperature 28 °F 14 °F -15 °F (2014)
Degree Days  
Heating Degree Days 22    
Month to date heating degree days 169  
Cooling Degree Days 0    
Month to date cooling degree days 0  
Year to date cooling degree days 0  
Moisture  
Dew Point 29 °F    
Average Humidity 58    
Maximum Humidity 75    
Minimum Humidity 41    
Precipitation  
Precipitation 0.00 in 0.02 in 1.12 in (1928)
Month to date precipitation T 0.11  
Year to date precipitation 0.14 0.48  
Sea Level Pressure  
Sea Level Pressure 29.88 in    
Wind  
Wind Speed 9 mph (South)    
Max Wind Speed 20 mph    
Max Gust Speed 24 mph    
Visibility 10 miles    
Events      
T = Trace of Precipitation, MM = Missing Value Source: NWS Daily Summary

Daily Weather History Graph

Daily Weather History Graph

Search for Another Location

Airport:

Trip Planner

Search our weather history database for the weather conditions in past years. The results will help you decide how hot, cold, wet, or windy it might be!

Date:

Astronomy

Feb. 06, 2013 Rise Set
Actual Time 7:42 AM CST 5:58 PM CST
Civil Twilight 7:13 AM CST 6:27 PM CST
Nautical Twilight 6:40 AM CST 7:00 PM CST
Astronomical Twilight 6:07 AM CST 7:32 PM CST
Moon 4:28 AM CST (2/6) 2:16 PM CST (2/6)
Length of Visible Light 11h 14m
Length of Day
10h 16m
Waning Crescent, 17% of the Moon is Illuminated
Feb 6
Waning Crescent
Feb 10
New
Feb 17
First Quarter
Feb 25
Full
Mar 4
Last Quarter

Hourly Weather History & Observations

Time (CST) Temp. Windchill Dew Point Humidity Pressure Visibility Wind Dir Wind Speed Gust Speed Precip Events Conditions
12:53 AM 30.2 °F - 19.4 °F 64% 29.95 in 10.0 mi Calm Calm - N/A   Clear
1:53 AM 30.0 °F 26.5 °F 21.9 °F 72% 29.98 in 10.0 mi SSE 3.5 mph - N/A   Clear
2:53 AM 33.1 °F 26.9 °F 26.1 °F 75% 29.96 in 10.0 mi SSE 6.9 mph - N/A   Clear
3:53 AM 34.0 °F 28.0 °F 27.0 °F 75% 29.93 in 10.0 mi SSE 6.9 mph - N/A   Clear
4:53 AM 36.0 °F 27.5 °F 28.0 °F 73% 29.91 in 10.0 mi South 12.7 mph - N/A   Clear
5:53 AM 37.0 °F 28.9 °F 28.0 °F 70% 29.91 in 10.0 mi South 12.7 mph - N/A   Clear
6:53 AM 37.9 °F 30.0 °F 28.0 °F 68% 29.89 in 10.0 mi South 12.7 mph - N/A   Overcast
7:53 AM 39.0 °F 30.3 °F 28.0 °F 65% 29.88 in 10.0 mi South 16.1 mph - N/A   Overcast
8:53 AM 39.9 °F 32.1 °F 28.0 °F 63% 29.88 in 10.0 mi SSW 13.8 mph 24.2 mph N/A   Mostly Cloudy
9:53 AM 42.1 °F 34.9 °F 28.0 °F 58% 29.87 in 10.0 mi South 13.8 mph - N/A   Clear
10:53 AM 45.0 °F 40.6 °F 28.0 °F 52% 29.88 in 10.0 mi South 8.1 mph - N/A   Clear
11:53 AM 46.9 °F - 28.9 °F 50% 29.86 in 10.0 mi South 9.2 mph - N/A   Clear
12:53 PM 52.0 °F - 30.0 °F 43% 29.83 in 10.0 mi SSW 6.9 mph - N/A   Clear
1:53 PM 55.9 °F - 32.0 °F 40% 29.79 in 10.0 mi Calm Calm - N/A   Partly Cloudy
2:53 PM 57.0 °F - 35.1 °F 44% 29.76 in 10.0 mi South 12.7 mph - N/A   Scattered Clouds
3:53 PM 55.9 °F - 35.1 °F 45% 29.78 in 10.0 mi South 8.1 mph - N/A   Scattered Clouds
4:53 PM 53.1 °F - 32.0 °F 45% 29.80 in 10.0 mi Calm Calm - N/A   Partly Cloudy
5:53 PM 48.0 °F - 35.1 °F 61% 29.83 in 10.0 mi NE 6.9 mph - N/A   Clear
6:53 PM 46.0 °F 43.9 °F 35.1 °F 66% 29.86 in 10.0 mi East 4.6 mph - N/A   Mostly Cloudy
7:53 PM 44.1 °F 39.0 °F 33.1 °F 65% 29.89 in 10.0 mi North 9.2 mph - N/A   Overcast
8:53 PM 44.1 °F 37.7 °F 28.9 °F 55% 29.91 in 10.0 mi North 12.7 mph - N/A   Clear
9:53 PM 42.1 °F 36.6 °F 28.9 °F 60% 29.94 in 10.0 mi North 9.2 mph - N/A   Clear
10:53 PM 39.9 °F 32.9 °F 28.9 °F 65% 29.95 in 10.0 mi NNW 11.5 mph - N/A   Clear
11:53 PM 39.0 °F 31.8 °F 28.0 °F 65% 29.97 in 10.0 mi NNW 11.5 mph - N/A   Clear